KS4XQ Weather Reports


Display with metric or nautical units.
time (UTC)temp
F
wind
direction
speed
MPH
gust
MPH
rain 1hr
in
rain 24hr
in
rain mn
in
humidity
%
barometer
mb
20260504023501 53 179 0.0 1.0 0.00 0.00 0.00 69 1016.8
20260504023002 53 179 0.0 1.0 0.00 0.00 0.00 69 1016.6
20260504022504 53 179 0.0 2.0 0.00 0.00 0.00 69 1016.5
20260504021502 53 179 0.0 1.0 0.00 0.00 0.00 69 1016.5
20260504021002 53 179 0.0 1.0 0.00 0.00 0.00 69 1016.5
20260504020504 54 179 0.0 0.0 0.00 0.00 0.00 69 1016.5
20260504020007 54 179 0.0 0.0 0.00 0.00 0.00 68 1016.4
20260504015501 54 179 0.0 0.0 0.00 0.00 0.00 68 1016.3
20260504015003 54 179 0.0 0.0 0.00 0.00 0.00 68 1016.2
20260504014501 55 179 0.0 0.0 0.00 0.00 0.00 68 1016.2
20260504014003 55 179 0.0 0.0 0.00 0.00 0.00 67 1016.2
20260504013501 55 179 0.0 0.0 0.00 0.00 0.00 66 1016.1
20260504013001 56 179 0.0 0.0 0.00 0.00 0.00 65 1016.1
20260504012501 56 179 0.0 0.0 0.00 0.00 0.00 64 1016.1
20260504012003 56 179 0.0 0.0 0.00 0.00 0.00 64 1016.0
20260504011501 57 179 0.0 0.0 0.00 0.00 0.00 63 1016.1
20260504010501 58 179 0.0 0.0 0.00 0.00 0.00 62 1016.1
20260504010004 58 179 0.0 0.0 0.00 0.00 0.00 61 1016.0
20260504005503 58 179 0.0 0.0 0.00 0.00 0.00 61 1016.0
20260504005001 59 179 0.0 0.0 0.00 0.00 0.00 60 1015.9
20260504004501 59 179 0.0 0.0 0.00 0.00 0.00 59 1016.0
20260504004001 60 179 0.0 0.0 0.00 0.00 0.00 58 1015.8
20260504003503 60 179 0.0 0.0 0.00 0.00 0.00 57 1015.7
20260504003001 61 179 0.0 0.0 0.00 0.00 0.00 56 1015.7
20260504001001 62 179 0.0 0.0 0.00 0.00 0.00 52 1015.5
20260504000501 63 179 0.0 0.0 0.00 0.00 0.00 52 1015.5
20260503235503 64 179 1.0 2.0 0.00 0.00 0.00 51 1015.4
20260503235001 64 208 0.0 2.0 0.00 0.00 0.00 49 1015.4
20260503234501 64 237 0.0 2.0 0.00 0.00 0.00 49 1015.4
20260503234001 64 284 0.0 2.0 0.00 0.00 0.00 48 1015.3
20260503233503 65 269 1.0 4.0 0.00 0.00 0.00 47 1015.4
20260503233003 65 274 1.0 4.0 0.00 0.00 0.00 47 1015.4
20260503231501 65 169 1.0 4.0 0.00 0.00 0.00 46 1015.4
20260503231003 66 281 1.0 4.0 0.00 0.00 0.00 45 1015.4
20260503230501 66 281 2.0 7.0 0.00 0.00 0.00 45 1015.5
20260503230004 66 261 1.0 7.0 0.00 0.00 0.00 44 1015.6
20260503225501 66 197 1.0 4.0 0.00 0.00 0.00 45 1015.6
20260503225004 66 144 1.0 3.0 0.00 0.00 0.00 45 1015.6
20260503224503 66 264 1.0 3.0 0.00 0.00 0.00 46 1015.7
20260503224001 66 275 2.0 7.0 0.00 0.00 0.00 45 1015.6
20260503222505 67 267 1.0 5.0 0.00 0.00 0.00 46 1015.7
20260503222001 67 263 1.0 5.0 0.00 0.00 0.00 44 1015.8
20260503221503 67 275 1.0 4.0 0.00 0.00 0.00 44 1015.7
20260503220501 67 311 2.0 5.0 0.00 0.00 0.00 45 1015.9
20260503220005 67 292 3.0 10.0 0.00 0.00 0.00 45 1015.9
20260503215503 67 309 2.0 10.0 0.00 0.00 0.00 44 1016.0
20260503215002 67 247 1.0 3.0 0.00 0.00 0.00 46 1015.9
20260503214501 67 323 1.0 4.0 0.00 0.00 0.00 45 1015.9
20260503214001 67 266 1.0 7.0 0.00 0.00 0.00 43 1015.9
20260503213001 67 310 2.0 11.0 0.00 0.00 0.00 44 1016.1
20260503212501 67 163 3.0 10.0 0.00 0.00 0.00 44 1016.1
20260503212002 67 295 2.0 9.0 0.00 0.00 0.00 44 1016.1
20260503211001 67 256 3.0 8.0 0.00 0.00 0.00 43 1016.3
20260503210503 67 286 3.0 7.0 0.00 0.00 0.00 43 1016.3
20260503210006 67 167 3.0 9.0 0.00 0.00 0.00 45 1016.3
20260503205002 67 194 2.0 8.0 0.00 0.00 0.00 47 1016.4
20260503204501 67 142 2.0 5.0 0.00 0.00 0.00 45 1016.4
20260503204004 67 244 2.0 8.0 0.00 0.00 0.00 44 1016.5
20260503203502 68 27 1.0 8.0 0.00 0.00 0.00 43 1016.6
20260503203002 68 160 2.0 8.0 0.00 0.00 0.00 47 1016.7
20260503202502 68 35 3.0 8.0 0.00 0.00 0.00 45 1016.8
20260503202004 68 5 3.0 10.0 0.00 0.00 0.00 43 1016.8
20260503201502 69 298 3.0 10.0 0.00 0.00 0.00 44 1016.9
20260503201002 69 255 2.0 9.0 0.00 0.00 0.00 43 1017.0
20260503200502 69 121 2.0 8.0 0.00 0.00 0.00 43 1017.0
20260503200006 69 292 2.0 8.0 0.00 0.00 0.00 42 1017.3
20260503195502 69 249 3.0 8.0 0.00 0.00 0.00 40 1017.4
20260503195002 69 291 4.0 11.0 0.00 0.00 0.00 42 1017.6
20260503194502 69 212 3.0 11.0 0.00 0.00 0.00 44 1017.6
20260503194004 68 286 3.0 10.0 0.00 0.00 0.00 42 1017.5
20260503193502 68 282 2.0 10.0 0.00 0.00 0.00 43 1017.6
20260503193002 68 298 2.0 7.0 0.00 0.00 0.00 42 1017.7
20260503192502 69 286 3.0 6.0 0.00 0.00 0.00 42 1017.8
20260503191502 69 297 3.0 8.0 0.00 0.00 0.00 43 1018.0
20260503191003 69 338 2.0 8.0 0.00 0.00 0.00 43 1018.2
20260503190004 70 238 3.0 9.0 0.00 0.00 0.00 41 1018.2
20260503185502 70 294 3.0 9.0 0.00 0.00 0.00 40 1018.3
20260503184502 69 298 2.0 9.0 0.00 0.00 0.00 40 1018.4
20260503183503 69 293 2.0 9.0 0.00 0.00 0.00 45 1018.4
20260503183002 69 40 2.0 8.0 0.00 0.00 0.00 42 1018.4
20260503182504 70 329 2.0 8.0 0.00 0.00 0.00 39 1018.4
20260503182002 70 277 2.0 5.0 0.00 0.00 0.00 41 1018.4
20260503181502 70 203 2.0 9.0 0.00 0.00 0.00 44 1018.5
20260503181002 69 277 3.0 9.0 0.00 0.00 0.00 40 1018.4
20260503180504 69 345 2.0 7.0 0.00 0.00 0.00 43 1018.5
20260503180003 68 227 2.0 7.0 0.00 0.00 0.00 43 1018.7
20260503175501 68 218 1.0 5.0 0.00 0.00 0.00 39 1018.6
20260503175002 67 288 2.0 7.0 0.00 0.00 0.00 46 1018.6
20260503174502 68 286 2.0 7.0 0.00 0.00 0.00 42 1018.7
20260503174001 68 16 2.0 7.0 0.00 0.00 0.00 46 1018.6
20260503173501 67 184 2.0 9.0 0.00 0.00 0.00 44 1018.7
20260503173004 68 320 2.0 9.0 0.00 0.00 0.00 44 1018.7
20260503172001 67 119 2.0 6.0 0.00 0.00 0.00 44 1018.9
20260503171003 66 303 2.0 8.0 0.00 0.00 0.00 44 1019.1
20260503170501 67 281 2.0 9.0 0.00 0.00 0.00 45 1019.2
20260503151001 61 265 1.0 4.0 0.00 0.00 0.00 54 1020.3
20260503150503 61 244 1.0 3.0 0.00 0.00 0.00 57 1020.2
20260503130501 45 96 1.0 3.0 0.00 0.00 0.00 95 1019.9
20260503110503 37 232 0.0 0.0 0.00 0.00 0.00 93 1019.0
20260503090502 39 232 0.0 0.0 0.00 0.00 0.00 93 1017.6
20260503081500 41 232 0.0 0.0 0.00 0.00 0.00 93 1017.0
20260503081000 41 232 0.0 0.0 0.00 0.00 0.00 93 1017.1
20260503080500 41 232 0.0 0.0 0.00 0.00 0.00 92 1016.9
20260503072501 42 232 0.0 1.0 0.00 0.00 0.00 93 1016.7
20260503071959 42 232 0.0 2.0 0.00 0.00 0.00 93 1016.6
20260503071500 42 225 0.0 0.0 0.00 0.00 0.00 92 1016.6
20260503071000 42 225 0.0 0.0 0.00 0.00 0.00 92 1016.5
20260503070501 42 225 0.0 0.0 0.00 0.00 0.00 92 1016.4
20260503055000 44 225 0.0 0.0 0.00 0.00 0.00 93 1016.2
20260503054502 44 225 0.0 1.0 0.00 0.00 0.00 92 1016.2
20260503053459 44 225 0.0 2.0 0.00 0.00 0.00 93 1016.3
20260503052501 44 225 0.0 0.0 0.00 0.00 0.00 91 1016.2
20260503052000 45 225 0.0 0.0 0.00 0.00 0.00 92 1016.3
20260503051500 45 225 0.0 0.0 0.00 0.00 0.00 92 1016.3
20260503051001 45 225 0.0 0.0 0.00 0.00 0.00 90 1016.3
20260503045500 45 225 0.0 0.0 0.00 0.00 0.00 90 1016.3
20260503045000 45 225 0.0 0.0 0.00 0.00 0.00 90 1016.2
20260503044500 45 225 0.0 0.0 0.00 0.00 0.00 90 1016.1
20260503044002 45 225 0.0 0.0 0.00 0.00 0.00 89 1016.1
20260503043500 45 225 0.0 0.0 0.00 0.00 0.00 90 1016.2
20260503042500 46 225 0.0 0.0 0.00 0.00 0.00 89 1016.4
20260503042000 46 225 0.0 0.0 0.00 0.00 0.00 89 1016.4
20260503041500 46 225 0.0 0.0 0.00 0.00 0.00 89 1016.4
20260503041002 46 225 0.0 0.0 0.00 0.00 0.00 88 1016.3
20260503040500 46 225 0.0 0.0 0.00 0.00 0.00 89 1016.3
20260503035001 47 225 0.0 0.0 0.00 0.00 0.00 87 1016.1
20260503034004 47 225 0.0 0.0 0.00 0.00 0.00 87 1016.0
20260503033502 47 225 0.0 0.0 0.00 0.00 0.00 87 1015.9
20260503033002 47 225 0.0 0.0 0.00 0.00 0.00 87 1015.8
20260503032502 48 225 0.0 0.0 0.00 0.00 0.00 87 1015.7
20260503032003 48 225 0.0 0.0 0.00 0.00 0.00 87 1015.8
20260503031501 48 225 0.0 0.0 0.00 0.00 0.00 87 1015.7
20260503031002 48 225 0.0 0.0 0.00 0.00 0.00 86 1015.6
20260503030503 48 225 0.0 0.0 0.00 0.00 0.00 86 1015.6
20260503030005 49 225 0.0 1.0 0.00 0.00 0.00 86 1015.6
20260503025002 49 225 0.0 0.0 0.00 0.00 0.00 86 1015.4
20260503024502 49 225 0.0 0.0 0.00 0.00 0.00 85 1015.5